Meteo pe oră la Al Jazirah al Hamra

Astăzi, 19 Ianuarie, Marţi

Timp Temperatura Precipitaţii Vânt Presiune Umiditate
00:00 +21°C° 0 mm 3 m/s 761 mmHg 78%
01:00 +20°C° 0 mm 3 m/s 761 mmHg 78%
02:00 +20°C° 0 mm 3 m/s 761 mmHg 79%
03:00 +20°C° 0 mm 3 m/s 761 mmHg 80%
04:00 +19°C° 0 mm 3 m/s 760 mmHg 80%
05:00 +19°C° 0 mm 3 m/s 761 mmHg 81%
06:00 +19°C° 0 mm 3 m/s 761 mmHg 83%
07:00 +19°C° 0 mm 3 m/s 761 mmHg 84%
08:00 +21°C° 0 mm 3 m/s 761 mmHg 77%
09:00 +22°C° 0 mm 3 m/s 762 mmHg 69%
10:00 +25°C° 0 mm 3 m/s 762 mmHg 68%
11:00 +26°C° 0 mm 3 m/s 762 mmHg 57%
12:00 +28°C° 0 mm 3 m/s 761 mmHg 45%
13:00 +29°C° 0 mm 4 m/s 761 mmHg 34%
14:00 +28°C° 0 mm 4 m/s 760 mmHg 35%
15:00 +28°C° 0 mm 4 m/s 760 mmHg 36%
16:00 +28°C° 0 mm 4 m/s 760 mmHg 37%
17:00 +26°C° 0 mm 4 m/s 760 mmHg 45%
18:00 +25°C° 0 mm 4 m/s 761 mmHg 53%
19:00 +22°C° 0 mm 4 m/s 761 mmHg 61%
20:00 +22°C° 0 mm 3 m/s 761 mmHg 63%
21:00 +21°C° 0 mm 3 m/s 761 mmHg 66%
22:00 +21°C° 0 mm 2 m/s 761 mmHg 68%
23:00 +20°C° 0 mm 2 m/s 761 mmHg 69%

Mâine, 20 Ianuarie, Miercuri

Timp Temperatura Precipitaţii Vânt Presiune Umiditate
00:00 +20°C° 0 mm 2 m/s 761 mmHg 70%
01:00 +19°C° 0 mm 3 m/s 761 mmHg 71%
02:00 +19°C° 0 mm 2 m/s 761 mmHg 72%
03:00 +19°C° 0 mm 2 m/s 761 mmHg 73%
04:00 +18°C° 0 mm 2 m/s 761 mmHg 74%
05:00 +18°C° 0 mm 3 m/s 761 mmHg 75%
06:00 +18°C° 0 mm 3 m/s 761 mmHg 77%
07:00 +18°C° 0 mm 3 m/s 762 mmHg 78%
08:00 +19°C° 0 mm 3 m/s 762 mmHg 72%
09:00 +21°C° 0 mm 3 m/s 762 mmHg 65%
10:00 +23°C° 0 mm 4 m/s 762 mmHg 59%
11:00 +25°C° 0 mm 4 m/s 762 mmHg 49%
12:00 +27°C° 0 mm 4 m/s 761 mmHg 40%
13:00 +28°C° 0 mm 4 m/s 761 mmHg 31%
14:00 +28°C° 0 mm 4 m/s 761 mmHg 32%
15:00 +28°C° 0 mm 4 m/s 761 mmHg 33%
16:00 +27°C° 0 mm 4 m/s 760 mmHg 34%
17:00 +26°C° 0 mm 3 m/s 761 mmHg 41%
18:00 +24°C° 0 mm 2 m/s 761 mmHg 47%
19:00 +23°C° 0 mm 2 m/s 761 mmHg 54%
20:00 +23°C° 0 mm 2 m/s 761 mmHg 55%
21:00 +21°C° 0 mm 2 m/s 761 mmHg 56%
22:00 +21°C° 0 mm 2 m/s 761 mmHg 57%
23:00 +20°C° 0 mm 2 m/s 761 mmHg 59%

Poimâine, 21 Ianuarie, Joi

Timp Temperatura Precipitaţii Vânt Presiune Umiditate
00:00 +20°C° 0 mm 2 m/s 761 mmHg 60%
01:00 +19°C° 0 mm 2 m/s 761 mmHg 62%
02:00 +19°C° 0 mm 2 m/s 761 mmHg 63%
03:00 +19°C° 0 mm 2 m/s 760 mmHg 65%
04:00 +19°C° 0 mm 2 m/s 760 mmHg 67%
05:00 +18°C° 0 mm 2 m/s 760 mmHg 68%
06:00 +18°C° 0 mm 3 m/s 761 mmHg 70%
07:00 +18°C° 0 mm 3 m/s 761 mmHg 71%
08:00 +20°C° 0 mm 3 m/s 761 mmHg 62%
09:00 +22°C° 0 mm 3 m/s 761 mmHg 54%
10:00 +25°C° 0 mm 3 m/s 762 mmHg 45%
11:00 +26°C° 0 mm 4 m/s 761 mmHg 44%
12:00 +26°C° 0 mm 5 m/s 761 mmHg 43%
13:00 +27°C° 0 mm 5 m/s 761 mmHg 41%
14:00 +27°C° 0 mm 6 m/s 760 mmHg 44%
15:00 +27°C° 0 mm 6 m/s 760 mmHg 46%
16:00 +26°C° 0 mm 6 m/s 760 mmHg 48%
17:00 +24°C° 0 mm 6 m/s 760 mmHg 57%
18:00 +23°C° 0 mm 7 m/s 760 mmHg 66%
19:00 +22°C° 0 mm 7 m/s 761 mmHg 75%
20:00 +22°C° 0 mm 8 m/s 761 mmHg 69%
21:00 +21°C° 0 mm 8 m/s 761 mmHg 63%
22:00 +21°C° 0 mm 8 m/s 761 mmHg 58%
23:00 +20°C° 0 mm 7 m/s 761 mmHg 60%

22 Ianuarie, Vineri

Timp Temperatura Precipitaţii Vânt Presiune Umiditate
00:00 +20°C° 0 mm 7 m/s 761 mmHg 62%
01:00 +19°C° 0 mm 6 m/s 761 mmHg 64%
02:00 +19°C° 0 mm 6 m/s 761 mmHg 66%
03:00 +19°C° 0 mm 6 m/s 760 mmHg 67%
04:00 +17°C° 0 mm 5 m/s 760 mmHg 68%
05:00 +17°C° 0 mm 5 m/s 761 mmHg 68%
06:00 +17°C° 0 mm 5 m/s 761 mmHg 68%
07:00 +16°C° 0 mm 5 m/s 761 mmHg 68%
08:00 +19°C° 0 mm 5 m/s 762 mmHg 61%
09:00 +20°C° 0 mm 5 m/s 762 mmHg 53%
10:00 +22°C° 0 mm 5 m/s 763 mmHg 46%
11:00 +22°C° 0 mm 4 m/s 763 mmHg 43%
12:00 +23°C° 0 mm 4 m/s 763 mmHg 39%
13:00 +25°C° 0 mm 4 m/s 762 mmHg 35%
14:00 +25°C° 0 mm 3 m/s 762 mmHg 36%
15:00 +25°C° 0 mm 3 m/s 762 mmHg 36%
16:00 +25°C° 0 mm 2 m/s 761 mmHg 36%
17:00 +23°C° 0 mm 2 m/s 762 mmHg 41%
18:00 +21°C° 0 mm 2 m/s 762 mmHg 46%
19:00 +20°C° 0 mm 2 m/s 763 mmHg 51%
20:00 +20°C° 0 mm 2 m/s 763 mmHg 54%
21:00 +20°C° 0 mm 2 m/s 764 mmHg 57%
22:00 +19°C° 0 mm 3 m/s 764 mmHg 59%
23:00 +19°C° 0 mm 3 m/s 764 mmHg 60%

23 Ianuarie, Sâmbătă

Timp Temperatura Precipitaţii Vânt Presiune Umiditate
00:00 +19°C° 0 mm 3 m/s 764 mmHg 61%
01:00 +19°C° 0 mm 3 m/s 764 mmHg 62%
02:00 +19°C° 0 mm 4 m/s 764 mmHg 59%
03:00 +19°C° 0 mm 4 m/s 764 mmHg 56%
04:00 +17°C° 0 mm 5 m/s 764 mmHg 52%
05:00 +17°C° 0 mm 5 m/s 764 mmHg 52%
06:00 +17°C° 0 mm 5 m/s 764 mmHg 52%
07:00 +16°C° 0 mm 5 m/s 765 mmHg 52%
08:00 +19°C° 0 mm 5 m/s 765 mmHg 47%
09:00 +20°C° 0 mm 5 m/s 766 mmHg 43%
10:00 +21°C° 0 mm 5 m/s 767 mmHg 39%
11:00 +22°C° 0 mm 6 m/s 766 mmHg 38%
12:00 +23°C° 0 mm 6 m/s 766 mmHg 38%
13:00 +23°C° 0 mm 7 m/s 766 mmHg 37%
14:00 +23°C° 0 mm 7 m/s 765 mmHg 36%
15:00 +23°C° 0 mm 7 m/s 765 mmHg 36%
16:00 +23°C° 0 mm 6 m/s 764 mmHg 35%
17:00 +22°C° 0 mm 6 m/s 765 mmHg 37%
18:00 +21°C° 0 mm 5 m/s 765 mmHg 39%
19:00 +20°C° 0 mm 5 m/s 765 mmHg 41%
20:00 +19°C° 0 mm 4 m/s 765 mmHg 42%
21:00 +19°C° 0 mm 4 m/s 765 mmHg 44%
22:00 +18°C° 0 mm 3 m/s 765 mmHg 45%
23:00 +18°C° 0 mm 3 m/s 765 mmHg 45%

24 Ianuarie, Duminică

Timp Temperatura Precipitaţii Vânt Presiune Umiditate
00:00 +18°C° 0 mm 3 m/s 765 mmHg 46%
01:00 +17°C° 0 mm 3 m/s 764 mmHg 46%
02:00 +17°C° 0 mm 3 m/s 764 mmHg 46%
03:00 +17°C° 0 mm 2 m/s 764 mmHg 46%
04:00 +16°C° 0 mm 2 m/s 764 mmHg 46%
05:00 +16°C° 0 mm 2 m/s 764 mmHg 48%
06:00 +16°C° 0 mm 2 m/s 764 mmHg 50%
07:00 +16°C° 0 mm 2 m/s 764 mmHg 52%
08:00 +17°C° 0 mm 2 m/s 765 mmHg 46%
09:00 +19°C° 0 mm 3 m/s 765 mmHg 40%
10:00 +21°C° 0 mm 3 m/s 765 mmHg 34%
11:00 +22°C° 0 mm 3 m/s 765 mmHg 33%
12:00 +23°C° 0 mm 4 m/s 764 mmHg 31%
13:00 +23°C° 0 mm 5 m/s 764 mmHg 30%
14:00 +23°C° 0 mm 5 m/s 764 mmHg 29%
15:00 +23°C° 0 mm 5 m/s 763 mmHg 28%
16:00 +23°C° 0 mm 5 m/s 763 mmHg 27%
17:00 +22°C° 0 mm 5 m/s 763 mmHg 27%
18:00 +21°C° 0 mm 4 m/s 763 mmHg 27%
19:00 +20°C° 0 mm 3 m/s 763 mmHg 27%
20:00 +19°C° 0 mm 3 m/s 763 mmHg 29%
21:00 +19°C° 0 mm 3 m/s 764 mmHg 31%
22:00 +19°C° 0 mm 3 m/s 764 mmHg 32%
23:00 +18°C° 0 mm 2 m/s 763 mmHg 35%
Arată mai mult

Formular de consimțământ

Meteoprog și furnizorii noștri de servicii pot stoca și accesa date personale, precum cookies, identificatori de dispozitiv sau alte tehnologii similare pe dispozitivul dumneavoastră și procesa astfel de date pentru a personaliza conținutul și reclamele, dar și pentru a oferi caracteristici de social media și pentru a analiza traficul.

  • Stocarea și/sau accesarea informațiilor pe dispozitivul dumneavoastră

    Cookies, identificatori de dispozitiv sau alte informații pot fi stocate sau accesate pe dispozitiv în scopurile indicate mai sus.

  • Reclame și conținut personalizat, evaluarea reclamelor și a conținutului, informații despre audiențe și dezvoltarea produselor

    Reclamele și conținutul pot fi personalizate pe baza unui profil. Pot fi adăugate date suplimentare pentru a personaliza mai bine reclamele și conținutul. Performanța reclamelor și conținutului poate fi măsurată. Pot fi obținute informații despre utilizatorii care au văzut reclamele și conținutul. Aceste date pot fi utilizate pentru a dezvolta sau îmbunătăți experiența utilizatorilor, sistemele și software-ul.

Dând clic pe ‘Sunt de acord’, permiteți utilizarea cookie-urilor menționate, a identificatorilor de dispozitiv, balizelor web sau altor tehnologii similare. Setările pot fi modificate din browser-ul dispozitivului dumneavoastră.

În anumite scopuri, interesele legitime pot prima asupra consimțământului. Puteți citi mai multe informații în acest sens în Politica privind Confidențialitatea Datelor și Cookie.